Time,TemperatureF,DewpointF,PressureIn,WindDirection,WindDirectionDegrees,WindSpeedMPH,WindSpeedGustMPH,Humidity,HourlyPrecipIn,Conditions,Clouds,dailyrainin,SoftwareType,DateUTC
2013-03-12 00:10:00,46.8,43.0,30.11,SSW,201,0.0,0.0,86,0.00,,,0.00,weatherlink.com 1.10,2013-03-12 04:10:00,
2013-03-12 00:25:00,46.8,43.0,30.10,SSW,201,0.0,0.0,86,0.00,,,0.00,weatherlink.com 1.10,2013-03-12 04:25:00,
2013-03-12 00:40:00,46.9,43.0,30.08,SSW,201,0.0,0.0,86,0.00,,,0.00,weatherlink.com 1.10,2013-03-12 04:40:00,
2013-03-12 00:55:00,46.8,43.0,30.07,SSW,201,0.0,0.0,86,0.00,,,0.00,weatherlink.com 1.10,2013-03-12 04:55:00,
2013-03-12 01:10:00,46.2,42.0,30.07,SSW,200,0.0,0.0,86,0.00,,,0.00,weatherlink.com 1.10,2013-03-12 05:10:00,
2013-03-12 01:25:00,46.1,43.0,30.06,SSW,199,0.0,0.0,87,0.00,,,0.00,weatherlink.com 1.10,2013-03-12 05:25:00,
2013-03-12 01:41:00,45.9,43.0,30.06,SSW,200,0.0,0.0,88,0.00,,,0.00,weatherlink.com 1.10,2013-03-12 05:41:00,
2013-03-12 01:56:00,46.1,43.0,30.06,SSW,197,0.0,0.0,89,0.00,,,0.00,weatherlink.com 1.10,2013-03-12 05:56:00,
2013-03-12 02:11:00,46.2,43.0,30.05,SSE,161,0.0,0.0,89,0.00,,,0.00,weatherlink.com 1.10,2013-03-12 06:11:00,
2013-03-12 02:26:00,46.3,43.0,30.04,SSE,160,0.0,0.0,89,0.00,,,0.00,weatherlink.com 1.10,2013-03-12 06:26:00,
2013-03-12 02:41:00,46.7,44.0,30.03,WSW,239,0.0,0.0,91,0.00,,,0.00,weatherlink.com 1.10,2013-03-12 06:41:00,
2013-03-12 02:56:00,47.7,46.0,30.02,ESE,108,0.0,0.0,92,0.00,,,0.00,weatherlink.com 1.10,2013-03-12 06:56:00,
2013-03-12 03:26:00,48.4,46.0,30.01,ESE,116,0.0,0.0,92,0.00,,,0.00,weatherlink.com 1.10,2013-03-12 07:26:00,
2013-03-12 03:56:00,48.6,46.0,30.00,ESE,116,0.0,0.0,91,0.00,,,0.00,weatherlink.com 1.10,2013-03-12 07:56:00,
2013-03-12 04:11:00,48.6,46.0,30.00,ESE,116,0.0,1.0,92,0.00,,,0.00,weatherlink.com 1.10,2013-03-12 08:11:00,
2013-03-12 04:26:00,48.6,46.0,29.99,ESE,116,0.0,0.0,92,0.00,,,0.00,weatherlink.com 1.10,2013-03-12 08:26:00,
2013-03-12 04:56:00,48.5,47.0,29.98,ESE,116,0.0,0.0,93,0.00,,,0.00,weatherlink.com 1.10,2013-03-12 08:56:00,
2013-03-12 05:11:00,48.3,47.0,29.98,South,175,0.0,1.0,94,0.00,,,0.00,weatherlink.com 1.10,2013-03-12 09:11:00,
2013-03-12 05:26:00,47.7,46.0,29.98,South,174,0.0,0.0,94,0.01,,,0.01,weatherlink.com 1.10,2013-03-12 09:26:00,
2013-03-12 05:41:00,47.7,47.0,29.98,South,175,0.0,0.0,96,0.01,,,0.01,weatherlink.com 1.10,2013-03-12 09:41:00,
2013-03-12 05:56:00,48.0,47.0,29.98,East,82,0.0,1.0,96,0.01,,,0.01,weatherlink.com 1.10,2013-03-12 09:56:00,
2013-03-12 06:11:00,48.0,47.0,29.97,SSE,148,0.0,1.0,96,0.01,,,0.01,weatherlink.com 1.10,2013-03-12 10:11:00,
2013-03-12 06:26:00,48.1,47.0,29.97,SSE,148,0.0,0.0,96,0.00,,,0.01,weatherlink.com 1.10,2013-03-12 10:26:00,
2013-03-12 06:41:00,48.1,47.0,29.96,SSE,148,0.0,0.0,97,0.00,,,0.01,weatherlink.com 1.10,2013-03-12 10:41:00,
2013-03-12 06:56:00,48.1,47.0,29.96,SSE,148,0.0,0.0,97,0.00,,,0.01,weatherlink.com 1.10,2013-03-12 10:56:00,
2013-03-12 07:11:00,48.3,48.0,29.95,SE,139,0.0,1.0,97,0.01,,,0.02,weatherlink.com 1.10,2013-03-12 11:11:00,
2013-03-12 07:26:00,48.6,48.0,29.95,NE,43,0.0,2.0,97,0.01,,,0.02,weatherlink.com 1.10,2013-03-12 11:26:00,
2013-03-12 07:41:00,48.8,48.0,29.95,SSE,155,0.0,1.0,97,0.02,,,0.02,weatherlink.com 1.10,2013-03-12 11:41:00,
2013-03-12 07:56:00,48.9,48.0,29.95,SE,143,0.0,1.0,98,0.03,,,0.04,weatherlink.com 1.10,2013-03-12 11:56:00,
2013-03-12 08:11:00,48.9,48.0,29.94,SE,145,0.0,1.0,98,0.05,,,0.06,weatherlink.com 1.10,2013-03-12 12:11:00,
2013-03-12 08:26:00,49.1,49.0,29.94,SSE,157,0.0,1.0,98,0.05,,,0.06,weatherlink.com 1.10,2013-03-12 12:26:00,
2013-03-12 08:42:00,49.2,49.0,29.94,SE,143,0.0,1.0,98,0.05,,,0.07,weatherlink.com 1.10,2013-03-12 12:42:00,
2013-03-12 08:57:00,49.3,49.0,29.94,SE,134,1.0,1.0,98,0.03,,,0.07,weatherlink.com 1.10,2013-03-12 12:57:00,
2013-03-12 09:12:00,49.5,49.0,29.94,SE,141,0.0,1.0,98,0.02,,,0.08,weatherlink.com 1.10,2013-03-12 13:12:00,
2013-03-12 09:27:00,49.7,49.0,29.94,South,190,0.0,1.0,98,0.02,,,0.08,weatherlink.com 1.10,2013-03-12 13:27:00,
2013-03-12 09:42:00,49.8,49.0,29.93,West,270,0.0,0.0,98,0.01,,,0.08,weatherlink.com 1.10,2013-03-12 13:42:00,
2013-03-12 09:57:00,49.9,49.0,29.92,SSW,195,0.0,1.0,98,0.02,,,0.09,weatherlink.com 1.10,2013-03-12 13:57:00,
2013-03-12 10:12:00,50.1,50.0,29.92,WSW,248,0.0,0.0,98,0.02,,,0.09,weatherlink.com 1.10,2013-03-12 14:12:00,
2013-03-12 10:27:00,50.3,50.0,29.91,WSW,250,0.0,3.0,98,0.02,,,0.10,weatherlink.com 1.10,2013-03-12 14:27:00,
2013-03-12 10:42:00,50.6,50.0,29.91,SSE,152,0.0,2.0,98,0.03,,,0.11,weatherlink.com 1.10,2013-03-12 14:42:00,
2013-03-12 10:57:00,50.7,50.0,29.90,South,169,0.0,1.0,98,0.04,,,0.13,weatherlink.com 1.10,2013-03-12 14:57:00,
2013-03-12 11:12:00,50.8,50.0,29.90,SSE,163,0.0,1.0,98,0.04,,,0.13,weatherlink.com 1.10,2013-03-12 15:12:00,
2013-03-12 11:27:00,51.0,51.0,29.89,SSE,155,0.0,1.0,98,0.03,,,0.13,weatherlink.com 1.10,2013-03-12 15:27:00,
2013-03-12 11:42:00,51.0,51.0,29.88,WNW,290,0.0,1.0,98,0.04,,,0.15,weatherlink.com 1.10,2013-03-12 15:42:00,
2013-03-12 11:57:00,51.1,51.0,29.87,SSW,200,0.0,1.0,98,0.05,,,0.17,weatherlink.com 1.10,2013-03-12 15:57:00,
2013-03-12 12:12:00,51.3,51.0,29.87,SSE,153,0.0,1.0,98,0.06,,,0.19,weatherlink.com 1.10,2013-03-12 16:12:00,
2013-03-12 12:27:00,51.4,51.0,29.87,SSE,153,0.0,0.0,98,0.07,,,0.20,weatherlink.com 1.10,2013-03-12 16:27:00,
2013-03-12 12:42:00,51.6,51.0,29.86,WSW,252,0.0,2.0,98,0.10,,,0.25,weatherlink.com 1.10,2013-03-12 16:42:00,
2013-03-12 12:57:00,51.7,51.0,29.85,SSW,203,1.0,1.0,98,0.12,,,0.29,weatherlink.com 1.10,2013-03-12 16:57:00,
2013-03-12 13:12:00,51.9,52.0,29.84,SE,146,0.0,2.0,99,0.16,,,0.35,weatherlink.com 1.10,2013-03-12 17:12:00,
2013-03-12 13:27:00,51.9,52.0,29.82,SSE,165,0.0,1.0,99,0.18,,,0.39,weatherlink.com 1.10,2013-03-12 17:27:00,
2013-03-12 13:42:00,52.1,52.0,29.81,SE,142,0.0,1.0,99,0.20,,,0.46,weatherlink.com 1.10,2013-03-12 17:42:00,
2013-03-12 13:57:00,52.1,52.0,29.80,SE,142,0.0,0.0,99,0.21,,,0.50,weatherlink.com 1.10,2013-03-12 17:57:00,
2013-03-12 14:12:00,52.1,52.0,29.78,SE,142,0.0,0.0,99,0.23,,,0.57,weatherlink.com 1.10,2013-03-12 18:12:00,
2013-03-12 14:27:00,52.1,52.0,29.77,SSE,148,0.0,0.0,99,0.25,,,0.65,weatherlink.com 1.10,2013-03-12 18:27:00,
2013-03-12 14:42:00,52.2,52.0,29.76,SSE,159,0.0,1.0,99,0.26,,,0.72,weatherlink.com 1.10,2013-03-12 18:42:00,
2013-03-12 14:57:00,52.4,52.0,29.75,SSW,195,0.0,1.0,99,0.29,,,0.80,weatherlink.com 1.10,2013-03-12 18:57:00,
2013-03-12 15:13:00,52.5,52.0,29.75,SSE,163,0.0,1.0,99,0.31,,,0.88,weatherlink.com 1.10,2013-03-12 19:13:00,
2013-03-12 15:28:00,52.5,52.0,29.75,SSE,163,0.0,1.0,99,0.36,,,1.02,weatherlink.com 1.10,2013-03-12 19:28:00,
2013-03-12 15:43:00,52.5,52.0,29.72,SSE,164,0.0,1.0,99,0.36,,,1.09,weatherlink.com 1.10,2013-03-12 19:43:00,
2013-03-12 15:58:00,52.4,52.0,29.73,West,278,0.0,1.0,99,0.35,,,1.15,weatherlink.com 1.10,2013-03-12 19:58:00,
2013-03-12 16:13:00,52.7,53.0,29.72,SW,215,0.0,1.0,99,0.28,,,1.17,weatherlink.com 1.10,2013-03-12 20:13:00,
2013-03-12 16:28:00,53.1,53.0,29.72,SSW,195,0.0,0.0,99,0.14,,,1.17,weatherlink.com 1.10,2013-03-12 20:28:00,
2013-03-12 16:43:00,53.1,53.0,29.71,SSW,196,0.0,0.0,99,0.09,,,1.17,weatherlink.com 1.10,2013-03-12 20:43:00,
2013-03-12 16:58:00,53.2,53.0,29.70,SSW,197,0.0,1.0,99,0.03,,,1.18,weatherlink.com 1.10,2013-03-12 20:58:00,
2013-03-12 17:13:00,53.0,53.0,29.71,SSW,197,0.0,0.0,99,0.03,,,1.20,weatherlink.com 1.10,2013-03-12 21:13:00,
2013-03-12 17:28:00,53.3,53.0,29.70,SSW,197,0.0,0.0,99,0.04,,,1.20,weatherlink.com 1.10,2013-03-12 21:28:00,
2013-03-12 17:43:00,53.6,53.0,29.70,SSW,197,0.0,0.0,99,0.03,,,1.20,weatherlink.com 1.10,2013-03-12 21:43:00,
2013-03-12 17:58:00,53.7,54.0,29.71,SSW,195,0.0,0.0,99,0.03,,,1.21,weatherlink.com 1.10,2013-03-12 21:58:00,
2013-03-12 18:13:00,53.7,54.0,29.71,SSW,196,0.0,0.0,99,0.02,,,1.21,weatherlink.com 1.10,2013-03-12 22:13:00,
2013-03-12 18:28:00,53.6,53.0,29.72,SSW,196,0.0,0.0,99,0.01,,,1.21,weatherlink.com 1.10,2013-03-12 22:28:00,
2013-03-12 18:43:00,50.3,48.0,29.74,SSE,148,1.0,5.0,93,0.01,,,1.21,weatherlink.com 1.10,2013-03-12 22:43:00,
2013-03-12 18:58:00,48.1,46.0,29.75,SSE,155,0.0,4.0,93,0.00,,,1.21,weatherlink.com 1.10,2013-03-12 22:58:00,
2013-03-12 19:13:00,46.2,43.0,29.76,West,271,2.0,7.0,89,0.00,,,1.21,weatherlink.com 1.10,2013-03-12 23:13:00,
2013-03-12 19:28:00,45.3,43.0,29.78,NW,312,0.0,5.0,90,0.01,,,1.22,weatherlink.com 1.10,2013-03-12 23:28:00,
2013-03-12 19:43:00,44.7,42.0,29.79,SE,128,0.0,2.0,91,0.01,,,1.22,weatherlink.com 1.10,2013-03-12 23:43:00,
2013-03-12 19:58:00,44.6,43.0,29.81,SE,141,0.0,1.0,93,0.01,,,1.22,weatherlink.com 1.10,2013-03-12 23:58:00,
2013-03-12 20:13:00,44.6,41.0,29.82,SW,223,0.0,3.0,88,0.01,,,1.22,weatherlink.com 1.10,2013-03-13 00:13:00,
2013-03-12 20:28:00,44.4,43.0,29.83,SW,222,0.0,0.0,93,0.00,,,1.22,weatherlink.com 1.10,2013-03-13 00:28:00,
2013-03-12 20:43:00,44.1,43.0,29.85,SW,234,0.0,1.0,95,0.00,,,1.22,weatherlink.com 1.10,2013-03-13 00:43:00,
2013-03-12 20:58:00,43.5,43.0,29.86,SSW,195,0.0,1.0,96,0.00,,,1.22,weatherlink.com 1.10,2013-03-13 00:58:00,
2013-03-12 21:13:00,43.3,43.0,29.86,SSW,194,0.0,0.0,97,0.00,,,1.22,weatherlink.com 1.10,2013-03-13 01:13:00,
2013-03-12 21:43:00,42.5,42.0,29.88,South,186,0.0,0.0,97,0.00,,,1.22,weatherlink.com 1.10,2013-03-13 01:43:00,
2013-03-12 21:58:00,42.4,42.0,29.88,South,186,0.0,0.0,97,0.00,,,1.22,weatherlink.com 1.10,2013-03-13 01:58:00,
2013-03-12 22:13:00,42.1,41.0,29.89,South,186,0.0,1.0,97,0.00,,,1.22,weatherlink.com 1.10,2013-03-13 02:13:00,
2013-03-12 22:28:00,41.9,41.0,29.89,South,186,0.0,0.0,97,0.00,,,1.22,weatherlink.com 1.10,2013-03-13 02:28:00,
2013-03-12 22:43:00,41.7,41.0,29.89,South,186,0.0,0.0,97,0.00,,,1.22,weatherlink.com 1.10,2013-03-13 02:43:00,
2013-03-12 22:58:00,41.4,41.0,29.89,South,186,0.0,0.0,97,0.00,,,1.22,weatherlink.com 1.10,2013-03-13 02:58:00,
2013-03-12 23:13:00,41.3,41.0,29.89,South,186,0.0,0.0,97,0.00,,,1.22,weatherlink.com 1.10,2013-03-13 03:13:00,
2013-03-12 23:28:00,40.6,40.0,29.89,South,186,0.0,0.0,97,0.00,,,1.22,weatherlink.com 1.10,2013-03-13 03:28:00,
2013-03-12 23:43:00,39.5,39.0,29.89,South,186,0.0,0.0,96,0.00,,,1.22,weatherlink.com 1.10,2013-03-13 03:43:00,
2013-03-12 23:58:00,38.5,38.0,29.89,South,186,0.0,0.0,96,0.00,,,1.22,weatherlink.com 1.10,2013-03-13 03:58:00,